Regional Weather Roundup
Issued by NWS

Home | Current Version | Previous Version | Graphics & Text | Print | Product List | Glossary On
Versions: 1 2 3 4 5 6 7 8 9 10 11 12 13 14 15 16 17 18 19 20 21 22 23 24 25 26 27 28 29 30 31 32 33 34 35 36 37 38 39 40 41 42 43 44 45 46 47 48 49 50
000
ASUS43 KDMX 240706
RWRIA

WEATHER ROUNDUP FOR IOWA
NATIONAL WEATHER SERVICE DES MOINES IA
200 AM CDT MON APR 24 2017

NOTE: "FAIR" INDICATES FEW OR NO CLOUDS BELOW 12,000 FEET WITH NO
SIGNIFICANT WEATHER AND/OR OBSTRUCTIONS TO VISIBILITY.

* - THESE STATIONS ARE NOT NWS STATIONS...THUS NOT UNDER NWS
QUALITY CONTROL.  THEY ALSO DO NOT REPORT WEATHER SUCH
AS PRECIPITATION OR FOG.

IAZ001>003-012>014-020>022-031>034-043>046-240800-
   NORTHWEST IOWA

CITY           SKY/WX    TMP DP  RH WIND       PRES   REMARKS
CARROLL *      MOCLDY    52  36  54 S13       29.88F
CHEROKEE *     CLOUDY    47  34  60 S8        29.84F
DENISON *      CLOUDY    52  34  50 S10       29.88F
LE MARS *      CLOUDY    54  32  43 S13G18    29.81F
ORANGE CITY *  CLOUDY    52  34  50 S9        29.81F
SHELDON *      CLOUDY    50  32  50 S15       29.79F
SIOUX CITY     PTCLDY    55  32  41 SE12      29.81F
SPENCER        CLOUDY    50  34  54 MISG      29.83F
STORM LAKE *   MOCLDY    48  32  53 S14       29.85F
$$

IAZ055>058-069>071-079>083-090>094-240800-
   SOUTHWEST IOWA

CITY           SKY/WX    TMP DP  RH WIND       PRES   REMARKS
ATLANTIC *     PTCLDY    52  36  54 S10       29.89F
AUDUBON *      CLOUDY    48  36  61 S6        29.90F
CLARINDA *       N/A     45  36  70 SW3       29.94F
COUNCIL BLFS * CLOUDY    50  36  57 S10       29.87F
CRESTON *      CLOUDY    48  34  57 S10       29.94S
HARLAN  *      CLOUDY    52  36  54 S9        29.91F
LAMONI         CLOUDY    51  32  48 SW7       29.94F
RED OAK *      CLOUDY    48  36  61 S7        29.90F
SHENANDOAH *   CLOUDY    52  36  54 SE8       29.91F
$$

IAZ047>049-059>061-072>074-084-240800-
   CENTRAL IOWA

CITY           SKY/WX    TMP DP  RH WIND       PRES   REMARKS
AMES           CLOUDY    46  36  68 S6        29.92F
ANKENY *       CLOUDY    48  34  57 CALM      29.94F
BOONE *        CLOUDY    48  34  57 S7        29.91F
CHARITON *     PTCLDY    48  34  57 SE6       29.94F
DES MOINES     CLOUDY    53  33  46 S7        29.93F
GRINNELL*      CLOUDY    49  32  51 S7        29.96F HAZE
KNOXVILLE *    PTCLDY    52  32  46 S6        29.93F
MARSHALLTOWN   CLEAR     52  33  48 SE9       29.93F
NEWTON *       CLOUDY    48  34  57 S9        29.93F
PELLA *        PTCLDY    50  34  53 SE5       29.96S
PERRY *          N/A     46  32  58 S6        29.92S
$$

IAZ004>006-015-016-023>025-035-036-240800-
   NORTH CENTRAL IOWA

CITY           SKY/WX    TMP DP  RH WIND       PRES   REMARKS
ALGONA *       CLOUDY    52  34  50 S13       29.88F
CLARION *      CLOUDY    50  34  53 S12       29.90F
ESTHERVILLE    CLOUDY    48  35  60 S13       29.84F
FORT DODGE *   CLOUDY    55  30  38 S13       29.90F
MASON CITY     CLEAR     46  35  65 S7        29.92F
FOREST CITY *    N/A     45  36  70 S9        29.89F
WEBSTER CITY * CLOUDY    48  34  57 S10       29.89F
IOWA FALLS *     N/A     52  35  52 S9        29.93F
$$

IAZ007>011-017>019-026>030-037>042-050>054-066-240800-
   NORTHEAST IOWA

CITY           SKY/WX    TMP DP  RH WIND       PRES   REMARKS
CEDAR RAPIDS   CLEAR     50  32  50 S3        29.95F
CHARLES CITY * CLEAR     52  32  46 S10       29.93F
CLINTON *      CLEAR     49  35  58 SE6       29.99F
DECORAH *      PTCLDY    50  34  53 S7        29.93F
DUBUQUE        CLEAR     49  33  54 S5        29.98F
MONTICELLO *   CLEAR     48  34  57 SE5       29.97F
WATERLOO       CLEAR     53  32  44 S9        29.93F
$$

IAZ064-065-067-068-078-240800-
   EAST CENTRAL IOWA

CITY           SKY/WX    TMP DP  RH WIND       PRES   REMARKS
DAVENPORT      CLEAR     51  31  46 SE3       29.98F
IOWA CITY      CLEAR     47  37  68 CALM      29.98F
MT. PLEASANT * CLEAR     49  31  49 SE3       29.98S
MUSCATINE *    CLEAR     41  34  75 CALM      29.98F
QUAD CITIES    CLEAR     46  38  73 CALM      29.98F
$$

IAZ062-063-075>077-085>089-095>099-240800-
   SOUTHEAST IOWA

CITY           SKY/WX    TMP DP  RH WIND       PRES   REMARKS
BURLINGTON     CLEAR     49  32  52 CALM      29.98S
FAIRFIELD *    CLOUDY    54  27  35 S5        29.96F
FORT MADISON * CLEAR     55  28  35 S5        29.98F
KEOKUK *       CLEAR     46  39  76 CALM      29.97F
OSKALOOSA *      N/A     47  32  55 S7        29.96F
CENTERVILLE *    N/A     46  34  61 CALM      29.97F
OTTUMWA        CLOUDY    50  32  50 S8        29.95F
WASHINGTON *   CLEAR     48  32  53 S5        29.98F
$$

ABBREVIATIONS USED IN REMARKS
   TC - TEMPERATURES IN CELSIUS
  WCI - WIND CHILL INDEX
   HX - HEAT INDEX
  VSB - VISIBILITY
$$





USA.gov is the U.S. government's official web portal to all federal, state and local government web resources and services.